Regional Weather Roundup
Issued by NWS Northern Indiana

Home | Current Version | Previous Version | Graphics & Text | Print | Product List | Glossary On
Versions: 1 2 3 4 5 6 7 8 9 10 11 12 13 14 15 16 17 18 19 20 21 22 23 24 25 26 27 28 29 30 31 32 33 34 35 36 37 38 39 40 41 42 43 44 45 46 47 48 49 50
000
ASUS43 KIWX 260810
RWRIWX

KIWX WEATHER ROUNDUP
NATIONAL WEATHER SERVICE NORTHERN INDIANA
300 AM EST FRI DEC 26 2014

NOTE: "FAIR" INDICATES FEW OR NO CLOUDS BELOW 12,000 FEET WITH NO
SIGNIFICANT WEATHER AND/OR OBSTRUCTIONS TO VISIBILITY.

* THESE STATIONS ARE NOT UNDER NWS QUALITY CONTROL. THEY ALSO MAY NOT
  REPORT WEATHER SUCH AS PRECIPITATION OR FOG.

INZ001>027-260900-
NORTHERN INDIANA

CITY           SKY/WX    TMP DP  RH WIND       PRES   REMARKS
GARY*          CLEAR     39  31  72 S7        30.04S
VALPARAISO     CLEAR     34  31  88 S9        30.06S WCI  27
MICHIGAN CITY* PTCLDY    36  30  80 S10       30.05S
LAPORTE*       PTCLDY    36  33  88 S7        30.07R
KNOX*          CLEAR     35  29  80 S13       30.06F WCI  26
SOUTH BEND     MOCLDY    37  31  78 S12       30.08
GOSHEN         PTCLDY    35  31  85 S8        30.09S WCI  29
MONTICELLO*    CLEAR     34  32  91 S7        30.09R WCI  28
LOGANSPORT*    CLEAR     34  30  86 S10       30.11S WCI  26
ROCHESTER*     CLEAR     36  34  93 S9        30.10S
WARSAW*        CLEAR     32  32 100 S3        30.11R
ANGOLA*        CLEAR     34  30  86 S7        30.11R WCI  28
FORT WAYNE     CLEAR     32  30  92 S9        30.14R WCI  24
HUNTINGTON*    CLEAR     34  32  93 S7        30.13R WCI  28
PERU/GRISSOM   CLEAR     35  35 100 S9        30.11R WCI  27
MARION*        CLEAR     33  31  92 S10       30.15R WCI  25

$$
INZ028>050-260900-
CENTRAL INDIANA

CITY           SKY/WX    TMP DP  RH WIND       PRES   REMARKS
LAFAYETTE      CLEAR     34  31  88 S6        30.10S WCI  29
KOKOMO*        CLEAR     34  30  86 S12       30.12S WCI  25
MUNCIE*        CLEAR     35  30  82 S8        30.16R WCI  29
INDIANAPOLIS   CLEAR     30  28  92 S7        30.14R WCI  23

$$
MIZ043>046-050>051-056>058-064>065-071>073-077>080-260900-
SOUTHWEST LOWER MICHIGAN

CITY           SKY/WX    TMP DP  RH WIND       PRES   REMARKS
BATTLE CREEK   CLOUDY    36  31  82 S10       30.08R
BENTON HARBOR  MOCLDY    38  32  79 S9        30.06R
COLDWATER*     CLOUDY    36  31  84 MISG      30.10R
HILLSDALE*     MOCLDY    33  33  96 S7        30.10R WCI  27
HOLLAND        CLOUDY    38  32  79 S8        30.05R
GRAND RAPIDS   CLOUDY    34  30  85 S8        30.06R WCI  27
KALAMAZOO      CLOUDY    36  31  82 S10       30.08R
STURGIS*       MOCLDY    34  30  86 S8        30.09R WCI  27
THREE RIVERS*  FAIR      35  32  87 S8        30.10R WCI  29

$$
OHZ001>008-015>018-024>025-260900-
NORTHWEST OHIO

CITY           SKY/WX    TMP DP  RH WIND       PRES   REMARKS
WAUSEON*       FAIR      32  30  93 S7        30.15R WCI  26
DEFIANCE       CLEAR     33  29  85 S7        30.15R WCI  27
FINDLAY        CLEAR     32  28  85 S8        30.16R WCI  25
TOLEDO EXPRESS PTCLDY    32  29  88 CALM      30.15S
TOLEDO METCALF PTCLDY    31  27  85 S5        30.17R WCI  26
LIMA           CLEAR     36  30  79 S8        30.16R

$$
AND FOR LAKE MICHIGAN COASTAL AND OPEN LAKE BUOY OBSERVATIONS

STATION/POSITION TEMP    WIND        PRES    VSBY  WAVE
                 AIR SEA DIR/SP/G                  HT/PER
                 (F)     (DEG/KT/KT) (MB)    (MI)  (FT/S)
CALUMET HARBOR    38     180/ 10/ 13 1015.4F
MICHIGAN CITY     37     150/ 15/ 18   N/A
SAINT JOSEPH      39     150/  4/ 10 1017.9R

$$
&&


USA.gov is the U.S. government's official web portal to all federal, state and local government web resources and services.